This demonstration page uses our WeatherBlox Daily Observations layout. Learn more.

Left ArrowRight Arrow

44.8408, -93.29828

Hourly Observations for November 15, 2015

Temp ( °F °C ) Dew Point ( °F °C ) Humidity (%) Winds ( mph kmh ) Pressure ( in mb ) Visibility ( mi km ) Precip ( " mm )
12:53 am 00:53 Clear 48 8.9 38 3.3 68 68 S 3 6 30.01 1016 10 16 0.00 0.00
1:53 am 01:53 Clear 47 8.3 38 3.3 71 71 S 6 9 30.01 1016 10 16 0.00 0.00
2:53 am 02:53 Clear 40 4.4 36 2.2 86 86 ESE 5 7 30.01 1016 10 16 0.00 0.00
3:53 am 03:53 Clear 40 4.4 36 2.2 86 86 ESE 6 9 30.01 1016 10 16 0.00 0.00
4:53 am 04:53 Clear 39 3.9 36 2.2 89 89 ESE 7 11 30.01 1016 10 16 0.00 0.00
5:53 am 05:53 Clear 39 3.9 35 1.7 86 86 ESE 7 11 30.02 1017 10 16 0.00 0.00
6:53 am 06:53 Clear 39 3.9 35 1.7 86 86 SE 5 7 30.02 1017 10 16 0.00 0.00
7:53 am 07:53 Sunny 40 4.4 36 2.2 86 86 SE 5 7 30.02 1017 10 16 0.00 0.00
8:53 am 08:53 Sunny 47 8.3 37 2.8 69 69 S 7 11 30.02 1017 10 16 0.00 0.00
9:53 am 09:53 Sunny 50 10 37 2.8 61 61 S 10 17 30.01 1016 10 16 0.00 0.00
10:53 am 10:53 Sunny 53 11.7 37 2.8 55 55 S 9 15 30.02 1017 10 16 0.00 0.00
11:53 am 11:53 Sunny 56 13.3 38 3.3 51 51 S 8 13 30.00 1016 10 16 0.00 0.00
12:53 pm 12:53 Sunny 58 14.4 39 3.9 50 50 SSE 9 15 29.98 1015 10 16 0.00 0.00
1:53 pm 13:53 Sunny 61 16.1 41 5 48 48 S 10 17 29.96 1014 10 16 0.00 0.00
2:53 pm 14:53 Sunny 62 16.7 41 5 46 46 S 13 20 29.95 1014 10 16 0.00 0.00
3:53 pm 15:53 Sunny 60 15.6 42 5.6 52 52 S 17 28 29.95 1014 10 16 0.00 0.00
4:53 pm 16:53 Clear 58 14.4 42 5.6 56 56 S 10 17 29.96 1014 10 16 0.00 0.00
5:53 pm 17:53 Clear 54 12.2 42 5.6 64 64 SSE 8 13 29.96 1015 10 16 0.00 0.00
6:53 pm 18:53 Clear 53 11.7 41 5 64 64 SSE 12 19 29.97 1015 10 16 0.00 0.00
7:53 pm 19:53 Clear 51 10.6 40 4.4 66 66 SSE 8 13 29.96 1015 10 16 0.00 0.00
8:53 pm 20:53 Clear 48 8.9 39 3.9 71 71 SE 8 13 29.96 1015 10 16 0.00 0.00
9:28 pm 21:28 Mostly Cloudy 50 10 39 4 67 67 SE 10 17 29.97 1015 10 16 0.00 0.00
9:53 pm 21:53 Cloudy 50 10 40 4.4 68 68 SE 8 13 29.95 1014 10 16 0.00 0.00
10:07 pm 22:07 Cloudy 50 10 40 4.4 68 68 SE 9 15 29.97 1015 10 16 0.00 0.00
10:53 pm 22:53 Cloudy 52 11.1 42 5.6 69 69 SSE 10 17 29.94 1014 10 16 0.00 0.00
11:29 pm 23:29 Cloudy 52 11.1 43 6.1 72 72 SE 12 19 29.97 1015 10 16 0.00 0.00
11:53 pm 23:53 Cloudy 53 11.7 44 6.7 72 72 SE 13 20 29.93 1014 10 16 0.00 0.00

Powered by AerisWeather